Joplin, MO

12:32 AM CDT on August 22, 2019 (GMT -0500)
Joplin Regional

Weather History for KJLN - June, 2019

Change the Weather History Date:

Wednesday, June 12, 2019

  Actual Average Record
Temperature  
Mean Temperature 66 °F 75 °F  
Max Temperature 78 °F 85 °F 102 °F (1953)
Min Temperature 54 °F 64 °F 52 °F (1985)
Degree Days  
Heating Degree Days 0 0  
Month to date heating degree days 0 2  
Since 1 June heating degree days 0 2  
Since 1 July heating degree days 4415 4071  
Cooling Degree Days 1 10  
Month to date cooling degree days 88 100  
Year to date cooling degree days 241 280  
Since 1 June cooling degree days 88 100  
Growing Degree Days 16 (Base 50)    
Moisture  
Dew Point 56 °F    
Average Humidity 74    
Maximum Humidity 100    
Minimum Humidity 46    
Precipitation  
Precipitation 0.58 in 0.20 in 2.36 in (2015)
Month to date precipitation 0.97 2.43  
Year to date precipitation 29.12 20.38  
Sea Level Pressure  
Sea Level Pressure 30.00 in    
Wind  
Wind Speed 6 mph ()    
Max Wind Speed 21 mph    
Max Gust Speed 31 mph    
Visibility 8.9 miles    
Events Rain , Thunderstorm    
T = Trace of Precipitation, MM = Missing Value Source: Averaged Metar Reports

Daily Weather History Graph

Daily Weather History Graph

Search for Another Location

Airport or City:

Astronomy

Jun. 12, 2019 Rise Set
Actual Time 5:57 AM CDT 8:38 PM CDT
Civil Twilight 5:26 AM CDT 9:09 PM CDT
Nautical Twilight 4:48 AM CDT 9:47 PM CDT
Astronomical Twilight 4:05 AM CDT 10:31 PM CDT
Moon 3:53 PM CDT (6/12) 3:04 AM CDT (6/12)
Length of Visible Light 15h 42m
Length of Day
14h 41m
Waxing Gibbous, 77% of the Moon is Illuminated
Jun 12
Waxing Gibbous
Jun 17
Full
Jun 25
Last Quarter
Jul 2
New
Jul 9
First Quarter

Hourly Weather History & Observations

Time (CDT) Temp. Dew Point Humidity Pressure Visibility Wind Dir Wind Speed Gust Speed Precip Events Conditions
12:53 AM 64.0 °F 54.0 °F 70% 30.03 in 10.0 mi SW 3.5 mph - N/A   Partly Cloudy
1:53 AM 64.0 °F 57.0 °F 78% 30.02 in 7.0 mi Calm Calm - 0.01 in Rain Rain
2:53 AM 61.0 °F 59.0 °F 93% 29.99 in 10.0 mi Calm Calm - 0.02 in   Partly Cloudy
3:53 AM 62.1 °F 57.9 °F 86% 29.96 in 10.0 mi South 3.5 mph - N/A   Mostly Cloudy
4:53 AM 61.0 °F 57.0 °F 87% 29.97 in 10.0 mi ESE 4.6 mph - N/A   Overcast
5:53 AM 61.0 °F 55.9 °F 83% 29.95 in 10.0 mi SSE 5.8 mph - 0.00 in Thunderstorm Thunderstorm
6:30 AM 61.0 °F 57.9 °F 90% 30.03 in 2.0 mi NW 13.8 mph 18.4 mph 0.05 in Rain Rain
6:53 AM 59.0 °F 57.9 °F 96% 30.01 in 3.0 mi NNW 9.2 mph - 0.31 in Rain Heavy Rain
7:20 AM 57.9 °F 55.9 °F 93% 30.03 in 3.0 mi Calm Calm - 0.08 in Rain , Thunderstorm Thunderstorms and Rain
7:53 AM 57.9 °F 57.0 °F 97% 30.00 in 8.0 mi South 6.9 mph - 0.22 in Rain Light Rain
8:53 AM 63.0 °F 61.0 °F 93% 30.01 in 10.0 mi SSW 9.2 mph - 0.00 in   Scattered Clouds
9:53 AM 66.0 °F 60.1 °F 81% 30.00 in 10.0 mi West 5.8 mph - N/A   Mostly Cloudy
10:53 AM 69.1 °F 60.1 °F 73% 30.00 in 10.0 mi WNW 6.9 mph - N/A   Mostly Cloudy
11:53 AM 72.0 °F 60.1 °F 66% 29.99 in 10.0 mi West 10.4 mph 18.4 mph N/A   Mostly Cloudy
12:53 PM 73.9 °F 57.9 °F 57% 29.98 in 10.0 mi WNW 13.8 mph 24.2 mph N/A   Clear
1:53 PM 75.9 °F 57.9 °F 54% 29.97 in 10.0 mi WNW 17.3 mph 24.2 mph N/A   Scattered Clouds
2:53 PM 75.9 °F 54.0 °F 46% 29.97 in 10.0 mi NNW 17.3 mph 27.6 mph N/A   Mostly Cloudy
3:53 PM 75.0 °F 54.0 °F 48% 29.96 in 10.0 mi NNW 12.7 mph 19.6 mph N/A   Mostly Cloudy
4:27 PM 70.0 °F 55.0 °F 59% 29.99 in 10.0 mi NW 17.3 mph 27.6 mph 0.00 in Rain , Thunderstorm Light Thunderstorms and Rain
4:53 PM 73.9 °F 53.1 °F 48% 29.96 in 10.0 mi NW 10.4 mph - 0.00 in   Partly Cloudy
5:53 PM 75.0 °F 55.0 °F 50% 29.95 in 10.0 mi NW 15.0 mph - N/A   Clear
6:53 PM 71.1 °F 55.9 °F 59% 29.97 in 8.0 mi NNW 20.7 mph 27.6 mph 0.00 in Rain Light Rain
7:01 PM 66.9 °F 55.0 °F 66% 29.99 in 9.0 mi NW 10.4 mph 27.6 mph 0.01 in Rain , Thunderstorm Light Thunderstorms and Rain
7:53 PM 63.0 °F 52.0 °F 67% 30.01 in 10.0 mi NNE 13.8 mph 31.1 mph 0.02 in   Scattered Clouds
8:53 PM 62.1 °F 54.0 °F 75% 30.02 in 10.0 mi North 3.5 mph - N/A   Overcast
9:53 PM 60.1 °F 53.1 °F 78% 30.04 in 10.0 mi Calm Calm - N/A   Clear
10:53 PM 55.9 °F 53.1 °F 90% 30.06 in 10.0 mi Calm Calm - N/A   Clear
11:53 PM 55.0 °F 54.0 °F 96% 30.06 in 10.0 mi Calm Calm - N/A   Clear